Time,TemperatureF,DewpointF,PressureIn,WindDirection,WindDirectionDegrees,WindSpeedMPH,WindSpeedGustMPH,Humidity,HourlyPrecipIn,Conditions,Clouds,dailyrainin,SoftwareType,DateUTC
2013-03-31 00:00:00,56.7,55.3,30.05,NNW,342,0.0,0.0,95,0.18,,-RA,0.00,VWS V14.01,2013-03-31 04:00:00,
2013-03-31 00:05:00,56.6,55.2,30.06,NNW,342,0.0,0.0,95,0.18,,-RA,0.00,VWS V14.01,2013-03-31 04:05:00,
2013-03-31 00:10:00,56.5,55.1,30.05,NNW,342,0.0,0.0,95,0.18,,-RA,0.00,VWS V14.01,2013-03-31 04:10:00,
2013-03-31 00:15:00,56.5,55.1,30.05,NNW,342,0.0,0.0,95,0.18,,-RA,0.00,VWS V14.01,2013-03-31 04:15:00,
2013-03-31 00:20:00,56.5,55.1,30.05,NNW,342,0.0,0.0,95,0.18,,-RA,0.00,VWS V14.01,2013-03-31 04:20:00,
2013-03-31 00:25:00,56.4,55.0,30.05,NNW,342,0.0,0.0,95,0.19,,-RA,0.01,VWS V14.01,2013-03-31 04:25:00,
2013-03-31 00:30:00,56.4,55.0,30.05,NNW,342,0.0,0.0,95,0.09,,-RA,0.01,VWS V14.01,2013-03-31 04:30:00,
2013-03-31 00:35:00,56.3,54.9,30.05,NNW,342,0.0,0.0,95,0.09,,,0.01,VWS V14.01,2013-03-31 04:35:00,
2013-03-31 00:40:00,56.3,54.9,30.05,NNW,342,0.0,0.0,95,0.09,,,0.01,VWS V14.01,2013-03-31 04:40:00,
2013-03-31 00:45:00,56.2,54.8,30.04,NNW,342,0.0,0.0,95,0.09,,,0.01,VWS V14.01,2013-03-31 04:45:00,
2013-03-31 00:50:00,56.2,54.8,30.04,NNW,342,0.0,0.0,95,0.09,,,0.01,VWS V14.01,2013-03-31 04:50:00,
2013-03-31 00:55:00,56.2,54.8,30.04,NNW,342,0.0,0.0,95,0.09,,,0.01,VWS V14.01,2013-03-31 04:55:00,
2013-03-31 01:00:00,56.3,54.9,30.04,NNW,342,0.0,0.0,95,0.01,,,0.01,VWS V14.01,2013-03-31 05:00:00,
2013-03-31 01:05:00,56.2,54.8,30.04,NNW,342,0.0,0.0,95,0.01,,,0.01,VWS V14.01,2013-03-31 05:05:00,
2013-03-31 01:10:00,56.2,54.8,30.04,NNW,342,0.0,0.0,95,0.02,,,0.02,VWS V14.01,2013-03-31 05:10:00,
2013-03-31 01:15:00,56.3,54.9,30.04,NNW,342,0.0,0.0,95,0.02,,,0.02,VWS V14.01,2013-03-31 05:15:00,
2013-03-31 01:20:00,56.3,55.2,30.04,NNW,342,0.0,0.0,96,0.02,,,0.02,VWS V14.01,2013-03-31 05:20:00,
2013-03-31 01:25:00,56.3,55.2,30.04,NNW,342,0.0,0.0,96,0.02,,,0.02,VWS V14.01,2013-03-31 05:25:00,
2013-03-31 01:30:00,56.3,55.2,30.04,NNW,342,0.0,0.0,96,0.02,,,0.03,VWS V14.01,2013-03-31 05:30:00,
2013-03-31 01:35:00,56.3,55.2,30.04,NNW,342,0.0,0.0,96,0.03,,-RA,0.04,VWS V14.01,2013-03-31 05:35:00,
2013-03-31 01:40:00,56.2,55.1,30.03,NNW,342,0.0,1.0,96,0.03,,-RA,0.04,VWS V14.01,2013-03-31 05:40:00,
2013-03-31 01:45:00,56.2,55.1,30.03,NNW,342,1.0,2.0,96,0.03,,-RA,0.04,VWS V14.01,2013-03-31 05:45:00,
2013-03-31 01:50:00,56.2,55.1,30.03,NNW,342,0.0,2.0,96,0.03,,-RA,0.04,VWS V14.01,2013-03-31 05:50:00,
2013-03-31 01:55:00,56.1,55.0,30.03,NNW,342,0.0,2.0,96,0.03,,-RA,0.04,VWS V14.01,2013-03-31 05:55:00,
2013-03-31 02:00:00,56.0,54.9,30.03,NNW,342,0.0,0.0,96,0.03,,-RA,0.04,VWS V14.01,2013-03-31 06:00:00,
2013-03-31 02:05:00,56.0,54.9,30.02,NNW,342,0.0,0.0,96,0.03,,-RA,0.04,VWS V14.01,2013-03-31 06:05:00,
2013-03-31 02:10:00,56.0,54.9,30.02,NNW,342,0.0,0.0,96,0.03,,-RA,0.04,VWS V14.01,2013-03-31 06:10:00,
2013-03-31 02:15:00,56.0,54.9,30.02,NNW,342,0.0,0.0,96,0.03,,-RA,0.04,VWS V14.01,2013-03-31 06:15:00,
2013-03-31 02:20:00,56.0,54.9,30.01,NNW,342,0.0,0.0,96,0.03,,-RA,0.04,VWS V14.01,2013-03-31 06:20:00,
2013-03-31 02:25:00,56.0,54.9,30.01,NNW,342,0.0,0.0,96,0.03,,-RA,0.04,VWS V14.01,2013-03-31 06:25:00,
2013-03-31 02:30:00,56.0,54.9,30.01,NNW,342,0.0,0.0,96,0.01,,-RA,0.04,VWS V14.01,2013-03-31 06:30:00,
2013-03-31 02:35:00,56.0,54.9,30.01,NNW,342,0.0,0.0,96,0.01,,,0.04,VWS V14.01,2013-03-31 06:35:00,
2013-03-31 02:40:00,56.0,54.9,30.01,NNW,342,0.0,0.0,96,0.01,,,0.04,VWS V14.01,2013-03-31 06:40:00,
2013-03-31 02:45:00,55.9,54.8,30.01,NNW,342,0.0,0.0,96,0.01,,,0.04,VWS V14.01,2013-03-31 06:45:00,
2013-03-31 02:50:00,55.9,54.8,30.01,NNW,342,0.0,0.0,96,0.01,,,0.04,VWS V14.01,2013-03-31 06:50:00,
2013-03-31 02:55:00,55.9,54.8,30.01,NNW,342,0.0,0.0,96,0.01,,,0.04,VWS V14.01,2013-03-31 06:55:00,
2013-03-31 03:00:00,56.0,54.9,30.01,NNW,342,0.0,0.0,96,0.00,,,0.04,VWS V14.01,2013-03-31 07:00:00,
2013-03-31 03:05:00,56.0,54.9,30.01,NNW,342,0.0,0.0,96,0.00,,,0.04,VWS V14.01,2013-03-31 07:05:00,
2013-03-31 03:10:00,56.0,54.9,30.01,NNW,342,0.0,0.0,96,0.01,,,0.05,VWS V14.01,2013-03-31 07:10:00,
2013-03-31 03:15:00,56.0,54.9,30.01,NNW,342,1.0,1.0,96,0.01,,,0.05,VWS V14.01,2013-03-31 07:15:00,
2013-03-31 03:20:00,56.0,54.9,30.01,NNW,342,0.0,1.0,96,0.01,,,0.05,VWS V14.01,2013-03-31 07:20:00,
2013-03-31 03:25:00,56.0,54.9,30.00,NNW,342,0.0,1.0,96,0.01,,,0.05,VWS V14.01,2013-03-31 07:25:00,
2013-03-31 03:30:00,56.0,54.9,30.00,NNW,342,0.0,0.0,96,0.01,,,0.05,VWS V14.01,2013-03-31 07:30:00,
2013-03-31 03:35:00,56.0,54.9,30.00,NNW,342,0.0,0.0,96,0.01,,,0.05,VWS V14.01,2013-03-31 07:35:00,
2013-03-31 03:40:00,56.0,54.9,30.00,NNW,342,0.0,1.0,96,0.01,,,0.05,VWS V14.01,2013-03-31 07:40:00,
2013-03-31 03:45:00,56.0,54.9,30.00,SE,146,0.0,2.0,96,0.01,,,0.05,VWS V14.01,2013-03-31 07:45:00,
2013-03-31 03:50:00,56.0,54.9,30.00,West,259,0.0,2.0,96,0.01,,,0.05,VWS V14.01,2013-03-31 07:50:00,
2013-03-31 03:55:00,56.0,54.9,30.00,West,259,0.0,2.0,96,0.01,,,0.05,VWS V14.01,2013-03-31 07:55:00,
2013-03-31 04:00:00,56.1,55.0,29.99,West,272,0.0,0.0,96,0.01,,,0.05,VWS V14.01,2013-03-31 08:00:00,
2013-03-31 04:05:00,56.1,55.0,30.00,West,276,0.0,0.0,96,0.01,,,0.05,VWS V14.01,2013-03-31 08:05:00,
2013-03-31 04:10:00,56.1,55.0,29.99,West,276,0.0,0.0,96,0.01,,,0.05,VWS V14.01,2013-03-31 08:10:00,
2013-03-31 04:15:00,56.1,55.0,29.99,West,276,0.0,0.0,96,0.01,,,0.05,VWS V14.01,2013-03-31 08:15:00,
2013-03-31 04:20:00,56.1,55.0,29.99,West,276,0.0,0.0,96,0.01,,,0.05,VWS V14.01,2013-03-31 08:20:00,
2013-03-31 04:25:00,56.1,55.0,29.99,West,276,0.0,1.0,96,0.01,,,0.05,VWS V14.01,2013-03-31 08:25:00,
2013-03-31 04:30:00,56.2,55.1,29.99,West,276,0.0,0.0,96,0.00,,,0.05,VWS V14.01,2013-03-31 08:30:00,
2013-03-31 04:35:00,56.2,55.1,29.98,West,276,0.0,0.0,96,0.00,,,0.05,VWS V14.01,2013-03-31 08:35:00,
2013-03-31 04:40:00,56.2,55.1,29.98,West,276,0.0,0.0,96,0.00,,,0.05,VWS V14.01,2013-03-31 08:40:00,
2013-03-31 04:45:00,56.2,55.1,29.98,West,276,0.0,1.0,96,0.00,,,0.05,VWS V14.01,2013-03-31 08:45:00,
2013-03-31 04:50:00,56.3,54.9,29.98,WSW,248,1.0,4.0,95,0.00,,,0.05,VWS V14.01,2013-03-31 08:50:00,
2013-03-31 04:55:00,56.4,55.0,29.98,WSW,252,0.0,4.0,95,0.00,,,0.05,VWS V14.01,2013-03-31 08:55:00,
2013-03-31 05:00:00,56.5,55.1,29.97,West,269,0.0,0.0,95,0.00,,,0.05,VWS V14.01,2013-03-31 09:00:00,
2013-03-31 05:05:00,56.5,55.1,29.97,SSW,208,4.0,4.0,95,0.00,,,0.05,VWS V14.01,2013-03-31 09:05:00,
2013-03-31 05:10:00,56.6,55.2,29.97,WSW,249,4.0,4.0,95,0.00,,,0.05,VWS V14.01,2013-03-31 09:10:00,
2013-03-31 05:15:00,56.6,55.2,29.97,WSW,244,2.0,4.0,95,0.00,,,0.05,VWS V14.01,2013-03-31 09:15:00,
2013-03-31 05:20:00,56.8,55.1,29.97,SSW,210,0.0,9.0,94,0.00,,,0.05,VWS V14.01,2013-03-31 09:20:00,
2013-03-31 05:25:00,56.8,55.1,29.97,WSW,248,3.0,9.0,94,0.00,,,0.05,VWS V14.01,2013-03-31 09:25:00,
2013-03-31 05:30:00,56.8,55.1,29.97,ESE,113,0.0,4.0,94,0.00,,,0.05,VWS V14.01,2013-03-31 09:30:00,
2013-03-31 05:35:00,56.9,55.2,29.97,West,276,2.0,9.0,94,0.00,,,0.05,VWS V14.01,2013-03-31 09:35:00,
2013-03-31 05:40:00,57.0,55.3,29.97,WNW,290,3.0,9.0,94,0.00,,OVC030,0.05,VWS V14.01,2013-03-31 09:40:00,
2013-03-31 05:45:00,57.0,55.3,29.97,SW,234,7.0,9.0,94,0.00,,OVC030,0.05,VWS V14.01,2013-03-31 09:45:00,
2013-03-31 05:50:00,57.2,55.2,29.97,SW,227,0.0,11.0,93,0.00,,OVC022,0.05,VWS V14.01,2013-03-31 09:50:00,
2013-03-31 05:55:00,57.1,55.1,29.97,West,260,2.0,11.0,93,0.00,,OVC022,0.05,VWS V14.01,2013-03-31 09:55:00,
2013-03-31 06:00:00,57.1,55.1,29.97,SW,235,0.0,1.0,93,0.00,,OVC022,0.05,VWS V14.01,2013-03-31 10:00:00,
2013-03-31 06:05:00,57.1,55.1,29.96,NNE,18,3.0,7.0,93,0.00,,OVC022,0.05,VWS V14.01,2013-03-31 10:05:00,
2013-03-31 06:10:00,57.2,55.2,29.97,SSW,213,6.0,7.0,93,0.00,,OVC022,0.05,VWS V14.01,2013-03-31 10:10:00,
2013-03-31 06:15:00,57.2,55.2,29.97,NW,315,4.0,7.0,93,0.00,,OVC022,0.05,VWS V14.01,2013-03-31 10:15:00,
2013-03-31 06:20:00,57.2,55.2,29.97,WSW,249,2.0,7.0,93,0.00,,OVC022,0.05,VWS V14.01,2013-03-31 10:20:00,
2013-03-31 06:25:00,57.2,55.2,29.96,SSW,212,1.0,7.0,93,0.00,,OVC022,0.05,VWS V14.01,2013-03-31 10:25:00,
2013-03-31 06:30:00,57.2,55.2,29.97,WSW,252,2.0,8.0,93,0.00,,OVC022,0.05,VWS V14.01,2013-03-31 10:30:00,
2013-03-31 06:35:00,57.2,55.2,29.97,West,269,2.0,8.0,93,0.00,,OVC025,0.05,VWS V14.01,2013-03-31 10:35:00,
2013-03-31 06:40:00,57.1,55.1,29.97,WNW,294,0.0,8.0,93,0.00,,OVC025,0.05,VWS V14.01,2013-03-31 10:40:00,
2013-03-31 06:45:00,57.1,55.4,29.97,West,263,0.0,8.0,94,0.00,,OVC025,0.05,VWS V14.01,2013-03-31 10:45:00,
2013-03-31 06:50:00,57.1,55.4,29.97,West,263,0.0,8.0,94,0.00,,OVC025,0.05,VWS V14.01,2013-03-31 10:50:00,
2013-03-31 06:55:00,57.1,55.1,29.97,West,263,0.0,8.0,93,0.00,,OVC025,0.05,VWS V14.01,2013-03-31 10:55:00,
2013-03-31 07:00:00,57.1,55.4,29.97,WSW,240,0.0,0.0,94,0.00,,OVC025,0.05,VWS V14.01,2013-03-31 11:00:00,
2013-03-31 07:05:00,57.1,55.4,29.97,WSW,241,0.0,2.0,94,0.00,,OVC025,0.05,VWS V14.01,2013-03-31 11:05:00,
2013-03-31 07:10:00,57.1,55.4,29.97,West,268,0.0,5.0,94,0.00,,OVC025,0.05,VWS V14.01,2013-03-31 11:10:00,
2013-03-31 07:15:00,57.0,55.3,29.98,SW,228,0.0,5.0,94,0.00,,OVC025,0.05,VWS V14.01,2013-03-31 11:15:00,
2013-03-31 07:20:00,57.1,55.1,29.98,WSW,257,1.0,6.0,93,0.00,,OVC025,0.05,VWS V14.01,2013-03-31 11:20:00,
2013-03-31 07:25:00,57.2,55.2,29.98,WSW,247,1.0,6.0,93,0.00,,OVC025,0.05,VWS V14.01,2013-03-31 11:25:00,
2013-03-31 07:30:00,57.2,55.2,29.98,WSW,253,0.0,0.0,93,0.00,,OVC025,0.05,VWS V14.01,2013-03-31 11:30:00,
2013-03-31 07:35:00,57.2,55.2,29.98,WSW,241,3.0,3.0,93,0.00,,OVC024,0.05,VWS V14.01,2013-03-31 11:35:00,
2013-03-31 07:40:00,57.2,55.2,29.99,WSW,242,0.0,4.0,93,0.00,,OVC024,0.05,VWS V14.01,2013-03-31 11:40:00,
2013-03-31 07:45:00,57.3,55.3,29.99,WSW,244,0.0,4.0,93,0.00,,OVC024,0.05,VWS V14.01,2013-03-31 11:45:00,
2013-03-31 07:50:00,57.3,55.3,29.99,WSW,252,0.0,5.0,93,0.00,,OVC031,0.05,VWS V14.01,2013-03-31 11:50:00,
2013-03-31 07:55:00,57.3,55.3,29.99,SW,234,0.0,5.0,93,0.00,,OVC031,0.05,VWS V14.01,2013-03-31 11:55:00,
2013-03-31 08:00:00,57.2,55.2,29.99,SW,234,1.0,1.0,93,0.00,,OVC031,0.05,VWS V14.01,2013-03-31 12:00:00,
2013-03-31 08:05:00,57.2,55.2,29.99,West,264,0.0,6.0,93,0.00,,OVC031,0.05,VWS V14.01,2013-03-31 12:05:00,
2013-03-31 08:10:00,57.3,55.3,29.99,SW,229,1.0,6.0,93,0.00,,OVC031,0.05,VWS V14.01,2013-03-31 12:10:00,
2013-03-31 08:15:00,57.3,55.3,29.99,WSW,248,0.0,6.0,93,0.00,,OVC031,0.05,VWS V14.01,2013-03-31 12:15:00,
2013-03-31 08:20:00,57.3,55.3,29.99,SW,229,0.0,6.0,93,0.00,,OVC031,0.05,VWS V14.01,2013-03-31 12:20:00,
2013-03-31 08:25:00,57.3,55.0,29.99,SW,219,8.0,9.0,92,0.00,,OVC031,0.05,VWS V14.01,2013-03-31 12:25:00,
2013-03-31 08:30:00,57.6,55.3,29.99,West,263,0.0,2.0,92,0.00,,OVC031,0.05,VWS V14.01,2013-03-31 12:30:00,
2013-03-31 08:35:00,57.6,55.3,29.99,West,274,0.0,3.0,92,0.00,,OVC021,0.05,VWS V14.01,2013-03-31 12:35:00,
2013-03-31 08:40:00,57.6,55.3,30.00,NW,309,0.0,4.0,92,0.00,,OVC021,0.05,VWS V14.01,2013-03-31 12:40:00,
2013-03-31 08:45:00,57.6,55.3,30.00,South,175,2.0,4.0,92,0.00,,OVC021,0.05,VWS V14.01,2013-03-31 12:45:00,
2013-03-31 08:50:00,57.6,55.0,30.00,SW,232,0.0,6.0,91,0.00,,OVC021,0.05,VWS V14.01,2013-03-31 12:50:00,
2013-03-31 08:55:00,57.6,55.0,30.00,WSW,240,0.0,6.0,91,0.00,,OVC021,0.05,VWS V14.01,2013-03-31 12:55:00,
2013-03-31 09:00:00,57.7,55.1,30.00,West,271,2.0,5.0,91,0.00,,OVC021,0.05,VWS V14.01,2013-03-31 13:00:00,
2013-03-31 09:05:00,57.8,55.2,30.00,WSW,255,0.0,5.0,91,0.00,,OVC021,0.05,VWS V14.01,2013-03-31 13:05:00,
2013-03-31 09:10:00,57.8,55.2,30.00,WSW,255,0.0,5.0,91,0.00,,OVC021,0.05,VWS V14.01,2013-03-31 13:10:00,
2013-03-31 09:15:00,57.9,55.3,30.00,West,273,1.0,6.0,91,0.00,,OVC021,0.05,VWS V14.01,2013-03-31 13:15:00,
2013-03-31 09:20:00,58.0,55.4,30.00,West,277,3.0,6.0,91,0.00,,OVC021,0.05,VWS V14.01,2013-03-31 13:20:00,
2013-03-31 09:25:00,58.1,55.8,30.01,West,263,0.0,6.0,92,0.00,,OVC021,0.05,VWS V14.01,2013-03-31 13:25:00,
2013-03-31 09:30:00,58.1,55.8,30.01,West,280,0.0,0.0,92,0.00,,OVC021,0.05,VWS V14.01,2013-03-31 13:30:00,
2013-03-31 09:35:00,58.3,56.0,30.01,West,267,3.0,6.0,92,0.00,,OVC021,0.05,VWS V14.01,2013-03-31 13:35:00,
2013-03-31 09:40:00,58.4,55.8,30.01,WSW,248,0.0,7.0,91,0.00,,OVC031,0.05,VWS V14.01,2013-03-31 13:40:00,
2013-03-31 09:45:00,58.5,55.9,30.01,WSW,246,4.0,7.0,91,0.00,,OVC031,0.05,VWS V14.01,2013-03-31 13:45:00,
2013-03-31 09:50:00,58.6,55.7,30.01,West,280,4.0,8.0,90,0.00,,OVC031,0.05,VWS V14.01,2013-03-31 13:50:00,
2013-03-31 09:54:00,58.6,55.7,30.01,West,271,0.0,8.0,90,0.00,,OVC031,0.05,VWS V14.01,2013-03-31 13:54:00,
2013-03-31 09:59:00,58.7,55.8,30.01,NW,312,2.0,2.0,90,0.00,,OVC031,0.05,VWS V14.01,2013-03-31 13:59:00,
2013-03-31 10:00:00,58.7,55.8,30.01,West,266,0.0,8.0,90,0.00,,OVC037,0.05,VWS V14.01,2013-03-31 14:00:00,
2013-03-31 10:04:00,58.8,55.6,30.01,WSW,252,8.0,8.0,89,0.00,,OVC031,0.05,VWS V14.01,2013-03-31 14:04:00,
2013-03-31 10:09:00,58.9,55.7,30.01,WNW,284,0.0,8.0,89,0.00,,OVC031,0.05,VWS V14.01,2013-03-31 14:09:00,
2013-03-31 10:14:00,59.1,55.5,30.01,SW,227,1.0,8.0,88,0.00,,OVC031,0.05,VWS V14.01,2013-03-31 14:14:00,
2013-03-31 10:19:00,59.2,55.7,30.01,West,266,2.0,8.0,88,0.00,,OVC031,0.05,VWS V14.01,2013-03-31 14:19:00,
2013-03-31 10:24:00,59.3,55.8,30.01,WSW,255,0.0,8.0,88,0.00,,OVC031,0.05,VWS V14.01,2013-03-31 14:24:00,
2013-03-31 10:29:00,59.4,55.5,30.01,WSW,240,0.0,4.0,87,0.00,,OVC031,0.05,VWS V14.01,2013-03-31 14:29:00,
2013-03-31 10:30:00,59.4,55.5,30.01,WSW,240,4.0,8.0,87,0.00,,OVC037,0.05,VWS V14.01,2013-03-31 14:30:00,
2013-03-31 10:35:00,59.6,55.7,30.01,WNW,294,3.0,6.0,87,0.00,,OVC031,0.05,VWS V14.01,2013-03-31 14:35:00,
2013-03-31 10:39:00,59.7,55.8,30.01,WSW,252,0.0,6.0,87,0.00,,OVC031,0.05,VWS V14.01,2013-03-31 14:39:00,
2013-03-31 10:44:00,59.8,55.9,30.01,WSW,241,1.0,6.0,87,0.00,,OVC031,0.05,VWS V14.01,2013-03-31 14:44:00,
2013-03-31 10:49:00,60.0,55.5,30.00,West,275,0.0,6.0,85,0.00,,OVC031,0.05,VWS V14.01,2013-03-31 14:49:00,
2013-03-31 10:54:00,60.0,55.2,30.01,WNW,290,2.0,9.0,84,0.00,,OVC031,0.05,VWS V14.01,2013-03-31 14:54:00,
2013-03-31 10:59:00,60.0,55.5,30.01,WSW,244,0.0,0.0,85,0.00,,OVC031,0.05,VWS V14.01,2013-03-31 14:59:00,
2013-03-31 11:00:00,60.0,55.5,30.01,WSW,244,0.0,9.0,85,0.00,,OVC037,0.05,VWS V14.01,2013-03-31 15:00:00,
2013-03-31 11:04:00,60.1,55.3,30.01,WSW,250,0.0,4.0,84,0.00,,OVC031,0.05,VWS V14.01,2013-03-31 15:04:00,
2013-03-31 11:09:00,60.2,55.3,30.00,West,278,0.0,4.0,84,0.00,,OVC031,0.05,VWS V14.01,2013-03-31 15:09:00,
2013-03-31 11:15:00,60.6,56.1,30.00,West,264,0.0,4.0,85,0.00,,OVC031,0.05,VWS V14.01,2013-03-31 15:15:00,
2013-03-31 11:20:00,60.7,55.5,30.00,WSW,252,2.0,8.0,83,0.00,,OVC031,0.05,VWS V14.01,2013-03-31 15:20:00,
2013-03-31 11:25:00,60.9,55.7,30.00,West,267,0.0,8.0,83,0.00,,OVC031,0.05,VWS V14.01,2013-03-31 15:25:00,
2013-03-31 11:30:00,61.1,55.6,30.00,SSW,197,1.0,2.0,82,0.00,,OVC031,0.05,VWS V14.01,2013-03-31 15:30:00,
2013-03-31 11:35:00,61.3,55.8,30.00,WSW,240,0.0,6.0,82,0.00,,OVC031,0.05,VWS V14.01,2013-03-31 15:35:00,
2013-03-31 11:39:00,61.4,55.5,30.00,SW,225,7.0,7.0,81,0.00,,OVC030,0.05,VWS V14.01,2013-03-31 15:39:00,
2013-03-31 11:44:00,61.5,55.6,30.00,WSW,246,0.0,7.0,81,0.00,,OVC030,0.05,VWS V14.01,2013-03-31 15:44:00,
2013-03-31 11:49:00,61.7,55.8,29.99,West,263,1.0,7.0,81,0.00,,OVC030,0.05,VWS V14.01,2013-03-31 15:49:00,
2013-03-31 11:54:00,61.9,56.0,30.00,WSW,249,2.0,7.0,81,0.00,,OVC030,0.05,VWS V14.01,2013-03-31 15:54:00,
2013-03-31 11:59:00,62.1,56.2,29.99,WSW,246,2.0,5.0,81,0.00,,OVC030,0.05,VWS V14.01,2013-03-31 15:59:00,
2013-03-31 12:00:00,62.1,56.2,29.99,WSW,253,5.0,7.0,81,0.00,,OVC037,0.05,VWS V14.01,2013-03-31 16:00:00,
2013-03-31 12:04:00,62.3,55.7,29.99,WSW,254,0.0,5.0,79,0.00,,OVC030,0.05,VWS V14.01,2013-03-31 16:04:00,
2013-03-31 12:09:00,62.6,55.7,29.99,West,280,3.0,8.0,78,0.00,,OVC030,0.05,VWS V14.01,2013-03-31 16:09:00,
2013-03-31 12:14:00,63.0,56.0,30.00,West,265,0.0,8.0,78,0.00,,OVC030,0.05,VWS V14.01,2013-03-31 16:14:00,
2013-03-31 12:19:00,63.3,56.0,29.99,West,266,2.0,8.0,77,0.00,,OVC030,0.05,VWS V14.01,2013-03-31 16:19:00,
2013-03-31 12:24:00,63.7,56.0,29.99,WSW,249,1.0,9.0,76,0.00,,OVC030,0.05,VWS V14.01,2013-03-31 16:24:00,
2013-03-31 12:29:00,64.5,56.4,29.99,West,266,1.0,1.0,75,0.00,,OVC030,0.05,VWS V14.01,2013-03-31 16:29:00,
2013-03-31 12:30:00,64.4,56.3,29.99,West,266,0.0,9.0,75,0.00,,OVC037,0.05,VWS V14.01,2013-03-31 16:30:00,
2013-03-31 12:34:00,65.0,56.9,29.99,West,281,7.0,7.0,75,0.00,,OVC030,0.05,VWS V14.01,2013-03-31 16:34:00,
2013-03-31 12:39:00,64.8,57.1,29.99,WSW,253,0.0,7.0,76,0.00,,OVC035,0.05,VWS V14.01,2013-03-31 16:39:00,
2013-03-31 12:44:00,64.6,56.5,29.99,West,272,0.0,7.0,75,0.00,,OVC035,0.05,VWS V14.01,2013-03-31 16:44:00,
2013-03-31 12:49:00,64.6,55.8,29.99,SSE,154,0.0,7.0,73,0.00,,OVC035,0.05,VWS V14.01,2013-03-31 16:49:00,
2013-03-31 12:54:00,64.8,56.3,29.99,SW,218,3.0,7.0,74,0.00,,OVC035,0.05,VWS V14.01,2013-03-31 16:54:00,
2013-03-31 12:59:00,64.5,56.0,29.99,WNW,297,0.0,0.0,74,0.00,,OVC035,0.05,VWS V14.01,2013-03-31 16:59:00,
2013-03-31 13:00:00,64.5,56.0,29.99,WNW,297,0.0,7.0,74,0.00,,OVC037,0.05,VWS V14.01,2013-03-31 17:00:00,
2013-03-31 13:04:00,64.5,56.0,29.99,West,273,0.0,2.0,74,0.00,,OVC035,0.05,VWS V14.01,2013-03-31 17:04:00,
2013-03-31 13:10:00,64.3,55.8,29.98,WSW,239,4.0,4.0,74,0.00,,OVC035,0.05,VWS V14.01,2013-03-31 17:10:00,
2013-03-31 13:15:00,64.2,56.1,29.97,NW,318,0.0,4.0,75,0.00,,OVC035,0.05,VWS V14.01,2013-03-31 17:15:00,
2013-03-31 13:20:00,64.3,56.2,29.97,NNW,330,0.0,4.0,75,0.00,,OVC035,0.05,VWS V14.01,2013-03-31 17:20:00,
2013-03-31 13:25:00,64.4,56.7,29.96,NNW,330,0.0,4.0,76,0.00,,OVC035,0.05,VWS V14.01,2013-03-31 17:25:00,
2013-03-31 13:30:00,64.5,57.1,29.96,NNW,330,0.0,0.0,77,0.00,,OVC035,0.05,VWS V14.01,2013-03-31 17:30:00,
2013-03-31 13:35:00,64.2,57.6,29.96,NNW,330,0.0,0.0,79,0.01,,OVC035,0.06,VWS V14.01,2013-03-31 17:35:00,
2013-03-31 13:40:00,63.7,58.8,29.96,NNW,330,0.0,1.0,84,0.03,,OVC037,0.08,VWS V14.01,2013-03-31 17:40:00,
2013-03-31 13:45:00,62.4,58.5,29.97,NNW,330,0.0,1.0,87,0.03,,OVC037,0.08,VWS V14.01,2013-03-31 17:45:00,
2013-03-31 13:50:00,61.8,58.5,29.97,NNW,336,0.0,2.0,89,0.05,,OVC037,0.10,VWS V14.01,2013-03-31 17:50:00,
2013-03-31 14:00:00,64.5,56.0,29.99,WNW,297,0.0,7.0,74,0.00,,OVC036,0.05,VWS V14.01,2013-03-31 18:00:00,
2013-03-31 14:03:00,61.7,59.0,29.97,WNW,302,0.0,0.0,91,0.05,,,0.10,VWS V14.01,2013-03-31 18:03:00,
2013-03-31 14:08:00,62.4,60.0,29.96,North,355,0.0,3.0,92,0.05,,OVC037,0.10,VWS V14.01,2013-03-31 18:08:00,
2013-03-31 14:13:00,62.9,60.5,29.96,North,9,0.0,3.0,92,0.05,,OVC037,0.10,VWS V14.01,2013-03-31 18:13:00,
2013-03-31 14:23:00,64.4,60.8,29.95,NNW,332,0.0,0.0,88,0.05,,,0.10,VWS V14.01,2013-03-31 18:23:00,
2013-03-31 14:28:00,64.7,60.8,29.95,West,270,0.0,4.0,87,0.05,,OVC037,0.10,VWS V14.01,2013-03-31 18:28:00,
2013-03-31 14:30:00,64.7,61.4,29.95,West,275,2.0,4.0,89,0.05,,,0.10,VWS V14.01,2013-03-31 18:30:00,
2013-03-31 14:33:00,64.8,60.5,29.94,SW,221,0.0,3.0,86,0.05,,OVC037,0.10,VWS V14.01,2013-03-31 18:33:00,
2013-03-31 14:38:00,64.8,60.2,29.94,WSW,245,0.0,3.0,85,0.05,,BKN033,0.10,VWS V14.01,2013-03-31 18:38:00,
2013-03-31 14:59:00,65.7,57.2,29.94,SW,223,4.0,4.0,74,0.05,,,0.10,VWS V14.01,2013-03-31 18:59:00,
2013-03-31 15:00:00,65.7,57.2,29.94,SW,223,4.0,4.0,74,0.05,,BKN033,0.10,VWS V14.01,2013-03-31 19:00:00,
2013-03-31 15:07:00,66.2,56.9,29.94,WNW,288,4.0,4.0,72,0.00,,,0.10,VWS V14.01,2013-03-31 19:07:00,
2013-03-31 15:13:00,67.3,57.6,29.93,West,270,2.0,2.0,71,0.00,,,0.10,VWS V14.01,2013-03-31 19:13:00,
2013-03-31 15:22:00,67.9,57.0,29.94,SSW,203,8.0,8.0,68,0.00,,,0.10,VWS V14.01,2013-03-31 19:22:00,
2013-03-31 15:27:00,67.5,56.2,29.93,WSW,256,8.0,10.0,67,0.00,,BKN033,0.10,VWS V14.01,2013-03-31 19:27:00,
2013-03-31 15:30:00,67.6,56.3,29.93,WSW,249,2.0,12.0,67,0.00,,OVC050,0.10,VWS V14.01,2013-03-31 19:30:00,
2013-03-31 15:32:00,67.6,55.8,29.93,SW,215,3.0,11.0,66,0.00,,BKN033,0.10,VWS V14.01,2013-03-31 19:32:00,
2013-03-31 15:50:00,68.5,56.3,29.92,SW,220,4.0,4.0,65,0.00,,,0.10,VWS V14.01,2013-03-31 19:50:00,
2013-03-31 15:55:00,68.1,55.9,29.92,South,185,0.0,0.0,65,0.00,,,0.10,VWS V14.01,2013-03-31 19:55:00,
2013-03-31 16:00:00,67.5,56.2,29.92,West,274,2.0,3.0,67,0.00,,OVC050,0.10,VWS V14.01,2013-03-31 20:00:00,
2013-03-31 16:05:00,67.2,56.7,29.91,WSW,241,0.0,9.0,69,0.00,,OVC050,0.10,VWS V14.01,2013-03-31 20:05:00,
2013-03-31 16:10:00,67.0,56.5,29.92,WSW,246,1.0,9.0,69,0.00,,OVC050,0.10,VWS V14.01,2013-03-31 20:10:00,
2013-03-31 16:15:00,67.3,56.4,29.92,WSW,256,7.0,9.0,68,0.00,,OVC050,0.10,VWS V14.01,2013-03-31 20:15:00,
2013-03-31 16:20:00,67.8,55.2,29.91,WSW,248,3.0,9.0,64,0.00,,OVC050,0.10,VWS V14.01,2013-03-31 20:20:00,
2013-03-31 16:25:00,68.1,56.3,29.91,West,273,1.0,9.0,66,0.00,,OVC050,0.10,VWS V14.01,2013-03-31 20:25:00,
2013-03-31 16:30:00,68.1,55.0,29.91,WSW,251,1.0,6.0,63,0.00,,OVC050,0.10,VWS V14.01,2013-03-31 20:30:00,
2013-03-31 16:35:00,68.1,55.0,29.90,SW,225,2.0,6.0,63,0.00,,FEW037,0.10,VWS V14.01,2013-03-31 20:35:00,
2013-03-31 16:40:00,68.1,55.5,29.90,WNW,282,1.0,8.0,64,0.00,,FEW037,0.10,VWS V14.01,2013-03-31 20:40:00,
2013-03-31 16:45:00,68.4,54.9,29.90,SW,217,3.0,11.0,62,0.00,,FEW037,0.10,VWS V14.01,2013-03-31 20:45:00,
2013-03-31 16:50:00,68.6,54.6,29.90,SW,217,4.0,11.0,61,0.00,,FEW037,0.10,VWS V14.01,2013-03-31 20:50:00,
2013-03-31 16:55:00,68.6,54.6,29.90,WSW,240,2.0,11.0,61,0.00,,FEW037,0.10,VWS V14.01,2013-03-31 20:55:00,
2013-03-31 17:00:00,68.7,54.3,29.90,WSW,238,3.0,6.0,60,0.00,,FEW037,0.10,VWS V14.01,2013-03-31 21:00:00,
2013-03-31 17:05:00,69.1,55.1,29.90,West,259,7.0,13.0,61,0.00,,FEW037,0.10,VWS V14.01,2013-03-31 21:05:00,
2013-03-31 17:10:00,69.3,54.8,29.90,SW,215,4.0,13.0,60,0.00,,FEW037,0.10,VWS V14.01,2013-03-31 21:10:00,
2013-03-31 17:15:00,68.9,54.0,29.91,NE,50,3.0,13.0,59,0.00,,FEW037,0.10,VWS V14.01,2013-03-31 21:15:00,
2013-03-31 17:20:00,69.2,54.7,29.91,West,275,8.0,13.0,60,0.00,,FEW037,0.10,VWS V14.01,2013-03-31 21:20:00,
2013-03-31 17:25:00,69.9,54.5,29.90,SW,221,6.0,13.0,58,0.00,,FEW037,0.10,VWS V14.01,2013-03-31 21:25:00,
2013-03-31 17:30:00,70.1,54.2,29.90,SW,227,3.0,10.0,57,0.00,,FEW037,0.10,VWS V14.01,2013-03-31 21:30:00,
2013-03-31 17:35:00,69.6,53.7,29.91,WSW,250,1.0,13.0,57,0.00,,BKN060,0.10,VWS V14.01,2013-03-31 21:35:00,
2013-03-31 17:40:00,69.6,54.2,29.90,NNE,24,3.0,13.0,58,0.00,,BKN060,0.10,VWS V14.01,2013-03-31 21:40:00,
2013-03-31 17:45:00,69.3,53.9,29.90,West,271,4.0,13.0,58,0.00,,BKN060,0.10,VWS V14.01,2013-03-31 21:45:00,
2013-03-31 17:50:00,69.1,53.7,29.90,WNW,283,1.0,13.0,58,0.00,,BKN060,0.10,VWS V14.01,2013-03-31 21:50:00,
2013-03-31 17:55:00,69.0,54.1,29.90,SW,229,3.0,13.0,59,0.00,,BKN060,0.10,VWS V14.01,2013-03-31 21:55:00,
2013-03-31 18:00:00,69.1,54.2,29.90,WSW,245,3.0,3.0,59,0.00,,BKN060,0.10,VWS V14.01,2013-03-31 22:00:00,
2013-03-31 18:05:00,69.1,54.2,29.90,West,261,1.0,5.0,59,0.00,,BKN060,0.10,VWS V14.01,2013-03-31 22:05:00,
2013-03-31 18:10:00,69.0,54.1,29.90,West,267,1.0,5.0,59,0.00,,BKN060,0.10,VWS V14.01,2013-03-31 22:10:00,
2013-03-31 18:15:00,68.6,53.7,29.90,West,277,5.0,7.0,59,0.00,,BKN060,0.10,VWS V14.01,2013-03-31 22:15:00,
2013-03-31 18:20:00,68.3,53.4,29.90,WSW,250,0.0,7.0,59,0.00,,BKN060,0.10,VWS V14.01,2013-03-31 22:20:00,
2013-03-31 18:25:00,68.3,53.9,29.90,West,269,2.0,7.0,60,0.00,,BKN060,0.10,VWS V14.01,2013-03-31 22:25:00,
2013-03-31 18:30:00,68.1,54.2,29.89,WSW,240,1.0,2.0,61,0.00,,BKN060,0.10,VWS V14.01,2013-03-31 22:30:00,
2013-03-31 18:35:00,68.0,54.1,29.90,WSW,240,0.0,2.0,61,0.00,,OVC100,0.10,VWS V14.01,2013-03-31 22:35:00,
2013-03-31 18:40:00,67.8,53.9,29.89,WSW,240,0.0,2.0,61,0.00,,OVC100,0.10,VWS V14.01,2013-03-31 22:40:00,
2013-03-31 18:45:00,67.8,53.9,29.89,WSW,241,0.0,2.0,61,0.00,,OVC100,0.10,VWS V14.01,2013-03-31 22:45:00,
2013-03-31 18:50:00,67.9,54.4,29.89,WSW,241,0.0,2.0,62,0.00,,OVC100,0.10,VWS V14.01,2013-03-31 22:50:00,
2013-03-31 18:55:00,68.0,55.0,29.89,WSW,241,1.0,2.0,63,0.00,,OVC100,0.10,VWS V14.01,2013-03-31 22:55:00,
2013-03-31 19:00:00,68.0,54.5,29.89,NNW,331,0.0,0.0,62,0.00,,OVC100,0.10,VWS V14.01,2013-03-31 23:00:00,
2013-03-31 19:05:00,67.9,54.4,29.89,West,273,0.0,5.0,62,0.00,,OVC100,0.10,VWS V14.01,2013-03-31 23:05:00,
2013-03-31 19:10:00,67.9,55.3,29.89,West,273,0.0,5.0,64,0.00,,OVC100,0.10,VWS V14.01,2013-03-31 23:10:00,
2013-03-31 19:15:00,67.9,55.3,29.89,West,273,0.0,5.0,64,0.00,,OVC100,0.10,VWS V14.01,2013-03-31 23:15:00,
2013-03-31 19:20:00,67.9,55.3,29.89,West,273,0.0,5.0,64,0.00,,OVC100,0.10,VWS V14.01,2013-03-31 23:20:00,
2013-03-31 19:25:00,67.7,55.1,29.89,West,273,0.0,5.0,64,0.00,,OVC100,0.10,VWS V14.01,2013-03-31 23:25:00,
2013-03-31 19:30:00,67.6,54.6,29.89,WNW,282,0.0,0.0,63,0.00,,OVC100,0.10,VWS V14.01,2013-03-31 23:30:00,
2013-03-31 19:35:00,67.5,55.8,29.90,WNW,282,0.0,0.0,66,0.00,,OVC080,0.10,VWS V14.01,2013-03-31 23:35:00,
2013-03-31 19:40:00,67.1,55.0,29.89,WNW,282,0.0,0.0,65,0.00,,OVC080,0.10,VWS V14.01,2013-03-31 23:40:00,
2013-03-31 19:45:00,66.8,55.5,29.89,WNW,282,0.0,1.0,67,0.00,,OVC080,0.10,VWS V14.01,2013-03-31 23:45:00,
2013-03-31 19:50:00,66.5,54.4,29.89,SW,227,0.0,5.0,65,0.00,,OVC080,0.10,VWS V14.01,2013-03-31 23:50:00,
2013-03-31 19:55:00,66.5,54.4,29.89,SW,224,0.0,5.0,65,0.00,,OVC080,0.10,VWS V14.01,2013-03-31 23:55:00,
2013-03-31 20:00:00,66.4,53.4,29.89,WSW,254,0.0,1.0,63,0.00,,OVC080,0.10,VWS V14.01,2013-04-01 00:00:00,
2013-03-31 20:05:00,66.3,53.3,29.89,WSW,247,3.0,4.0,63,0.00,,OVC080,0.10,VWS V14.01,2013-04-01 00:05:00,
2013-03-31 20:10:00,66.2,53.2,29.89,WSW,250,0.0,4.0,63,0.00,,OVC080,0.10,VWS V14.01,2013-04-01 00:10:00,
2013-03-31 20:15:00,66.1,53.2,29.89,WSW,250,0.0,4.0,63,0.00,,OVC080,0.10,VWS V14.01,2013-04-01 00:15:00,
2013-03-31 20:20:00,65.9,53.0,29.89,WSW,250,0.0,4.0,63,0.00,,OVC080,0.10,VWS V14.01,2013-04-01 00:20:00,
2013-03-31 20:25:00,65.6,53.5,29.89,WSW,250,0.0,4.0,65,0.00,,OVC080,0.10,VWS V14.01,2013-04-01 00:25:00,
2013-03-31 20:30:00,65.4,53.8,29.89,WSW,250,0.0,0.0,66,0.00,,OVC080,0.10,VWS V14.01,2013-04-01 00:30:00,
2013-03-31 20:35:00,65.2,54.0,29.89,WSW,250,0.0,0.0,67,0.00,,OVC080,0.10,VWS V14.01,2013-04-01 00:35:00,
2013-03-31 20:40:00,64.8,54.4,29.89,WSW,250,0.0,0.0,69,0.00,,OVC080,0.10,VWS V14.01,2013-04-01 00:40:00,
2013-03-31 20:45:00,64.5,53.7,29.89,WSW,250,0.0,0.0,68,0.00,,OVC080,0.10,VWS V14.01,2013-04-01 00:45:00,
2013-03-31 20:50:00,64.3,54.3,29.89,WSW,250,0.0,1.0,70,0.00,,OVC080,0.10,VWS V14.01,2013-04-01 00:50:00,
2013-03-31 20:55:00,64.1,53.3,29.89,WSW,250,0.0,1.0,68,0.00,,OVC080,0.10,VWS V14.01,2013-04-01 00:55:00,
2013-03-31 21:00:00,64.1,54.1,29.90,WSW,250,0.0,0.0,70,0.00,,OVC080,0.10,VWS V14.01,2013-04-01 01:00:00,
2013-03-31 21:05:00,64.1,53.7,29.90,WSW,242,0.0,8.0,69,0.00,,OVC080,0.10,VWS V14.01,2013-04-01 01:05:00,
2013-03-31 21:10:00,64.3,53.5,29.90,WSW,245,1.0,8.0,68,0.00,,OVC080,0.10,VWS V14.01,2013-04-01 01:10:00,
2013-03-31 21:15:00,64.3,53.5,29.91,WSW,246,3.0,8.0,68,0.00,,OVC080,0.10,VWS V14.01,2013-04-01 01:15:00,
2013-03-31 21:20:00,64.3,53.5,29.91,WSW,246,0.0,8.0,68,0.00,,OVC080,0.10,VWS V14.01,2013-04-01 01:20:00,
2013-03-31 21:25:00,64.3,53.5,29.91,WSW,246,0.0,8.0,68,0.00,,OVC080,0.10,VWS V14.01,2013-04-01 01:25:00,
2013-03-31 21:30:00,64.2,53.4,29.91,WSW,246,0.0,0.0,68,0.00,,OVC080,0.10,VWS V14.01,2013-04-01 01:30:00,
2013-03-31 21:35:00,64.1,53.7,29.91,WSW,246,0.0,0.0,69,0.00,,OVC095,0.10,VWS V14.01,2013-04-01 01:35:00,
2013-03-31 21:40:00,64.0,53.6,29.91,WSW,246,0.0,0.0,69,0.00,,OVC095,0.10,VWS V14.01,2013-04-01 01:40:00,
2013-03-31 21:45:00,63.9,53.5,29.91,WSW,246,0.0,0.0,69,0.00,,OVC095,0.10,VWS V14.01,2013-04-01 01:45:00,
2013-03-31 21:50:00,63.8,53.5,29.91,WSW,246,0.0,0.0,69,0.00,,OVC095,0.10,VWS V14.01,2013-04-01 01:50:00,
2013-03-31 21:55:00,63.7,54.5,29.91,WSW,246,0.0,0.0,72,0.00,,OVC095,0.10,VWS V14.01,2013-04-01 01:55:00,
2013-03-31 22:00:00,63.5,54.7,29.91,WSW,246,0.0,0.0,73,0.00,,OVC095,0.10,VWS V14.01,2013-04-01 02:00:00,
2013-03-31 22:05:00,63.2,54.4,29.91,WSW,246,0.0,0.0,73,0.00,,OVC095,0.10,VWS V14.01,2013-04-01 02:05:00,
2013-03-31 22:10:00,63.0,55.3,29.91,WSW,246,0.0,0.0,76,0.00,,OVC095,0.10,VWS V14.01,2013-04-01 02:10:00,
2013-03-31 22:15:00,62.6,55.3,29.91,WSW,246,0.0,0.0,77,0.00,,OVC095,0.10,VWS V14.01,2013-04-01 02:15:00,
2013-03-31 22:20:00,62.3,55.4,29.91,WSW,246,0.0,0.0,78,0.00,,OVC095,0.10,VWS V14.01,2013-04-01 02:20:00,
2013-03-31 22:25:00,62.1,55.2,29.91,WSW,246,0.0,0.0,78,0.00,,OVC095,0.10,VWS V14.01,2013-04-01 02:25:00,
2013-03-31 22:30:00,61.9,56.0,29.91,WSW,246,0.0,0.0,81,0.00,,OVC095,0.10,VWS V14.01,2013-04-01 02:30:00,
2013-03-31 22:35:00,61.6,56.1,29.92,WSW,246,0.0,0.0,82,0.00,,OVC090,0.10,VWS V14.01,2013-04-01 02:35:00,
2013-03-31 22:40:00,61.4,55.9,29.92,WSW,246,0.0,0.0,82,0.00,,OVC090,0.10,VWS V14.01,2013-04-01 02:40:00,
2013-03-31 22:45:00,61.2,55.3,29.92,WSW,246,0.0,0.0,81,0.00,,OVC090,0.10,VWS V14.01,2013-04-01 02:45:00,
2013-03-31 22:50:00,61.1,55.2,29.92,WSW,246,0.0,0.0,81,0.00,,OVC090,0.10,VWS V14.01,2013-04-01 02:50:00,
2013-03-31 22:55:00,61.0,55.1,29.92,WSW,246,0.0,0.0,81,0.00,,OVC090,0.10,VWS V14.01,2013-04-01 02:55:00,
2013-03-31 23:00:00,61.1,55.2,29.92,WSW,246,0.0,0.0,81,0.00,,OVC090,0.10,VWS V14.01,2013-04-01 03:00:00,
2013-03-31 23:05:00,61.2,55.0,29.92,WSW,246,0.0,2.0,80,0.00,,OVC090,0.10,VWS V14.01,2013-04-01 03:05:00,
2013-03-31 23:10:00,61.3,55.1,29.92,WSW,246,0.0,2.0,80,0.00,,OVC090,0.10,VWS V14.01,2013-04-01 03:10:00,
2013-03-31 23:15:00,61.4,55.5,29.92,WSW,247,0.0,2.0,81,0.00,,OVC090,0.10,VWS V14.01,2013-04-01 03:15:00,
2013-03-31 23:20:00,61.6,54.7,29.92,WSW,248,0.0,4.0,78,0.00,,OVC090,0.10,VWS V14.01,2013-04-01 03:20:00,
2013-03-31 23:25:00,61.8,54.5,29.92,WNW,287,0.0,4.0,77,0.00,,OVC090,0.10,VWS V14.01,2013-04-01 03:25:00,
2013-03-31 23:30:00,62.1,54.5,29.92,WSW,257,0.0,3.0,76,0.00,,OVC090,0.10,VWS V14.01,2013-04-01 03:30:00,
2013-03-31 23:35:00,62.5,54.5,29.92,SW,236,0.0,4.0,75,0.00,,OVC060,0.10,VWS V14.01,2013-04-01 03:35:00,
2013-03-31 23:40:00,62.7,54.7,29.92,WSW,253,1.0,4.0,75,0.00,,OVC060,0.10,VWS V14.01,2013-04-01 03:40:00,
2013-03-31 23:45:00,62.8,54.8,29.92,South,169,0.0,4.0,75,0.00,,OVC060,0.10,VWS V14.01,2013-04-01 03:45:00,
2013-03-31 23:50:00,62.7,54.7,29.92,SSW,203,0.0,4.0,75,0.00,,OVC060,0.10,VWS V14.01,2013-04-01 03:50:00,
2013-03-31 23:55:00,62.5,55.6,29.92,SSW,203,0.0,4.0,78,0.00,,OVC060,0.10,VWS V14.01,2013-04-01 03:55:00,